FENGYUN 1C DEB, 33748

Orbit data source: Space-Track

FENGYUN 1C DEB, 33748 is space debris in SSO originally from a launch on Mon, 10 May 1999 UTC launched from the Taiyaun Space Center, China (TSC). Fengyun 1C debris stems from the Chinese weather satellite Fengyun-1C, which was intentionally destroyed by a Chinese anti-satellite missile in 2007. This event dramatically increased the amount of space debris, with thousands of trackable fragments posing hazards to satellites and human spaceflight. The Fengyun 1C debris cloud has become a focal point in discussions about space sustainability and the need for international regulations to prevent the creation of new debris.

Loading next visibility...
Identifier
33748, 1999-025DJM
Orbit
SSO
Country
Flag of CNCN / PRC
Related business
Manufacturer
Unknown
Mission
Spacecraft
Bus & Motor
Unknown
Mass
Unknown
Launch date (UTC)
1999-05-10 (27 years ago)
Launch vehicle
Unknown
Launch site
Taiyaun Space Center, China (TSC)
Object type
Payload
Rocket body
Debris
Shape & HBR
Unknown shape, 0.1 m
Radar Cross Section
Small (<0.1 m²)

Expand to show TLE details & history
Last TLE update: 1 day ago

TLE from 1 day ago
0 FENGYUN 1C DEB
1 33748U 99025DJM 26104.07860333  .00000982  00000-0  37316-3 0  9995
2 33748  98.5698 158.9817 0034773 236.8077 122.9771 14.32877581931455
Epoch: 2026-04-14T01:53Z
TLE epoch observation values (Epoch: 2026-04-14T01:53:11.327Z)
Latitude
-0.00003°
Longitude
-71.5755°
Altitude
798.681 km
Speed
7.447 km/s
True Right ascension
10h 35m 55s
True Declination
0° 00' 00"
Sunlit
Object was in full shadow at epoch
Visualization orbit readout
Latitude
Unknown
Longitude
Unknown
Altitude
Unknown
Speed
Unknown
Apparent Right ascension
Unknown
Apparent Declination
Unknown
Sunlit
N/A
Visualization observer readout
Local Sidereal Time
12:15:00
Azimuth
Unknown
Elevation
Unknown
Doppler factor
Unknown
Orbital elements
Apogee altitude
804.151 km
Perigee altitude
754.375 km
Semi-major axis
7,157.4 km
Eccentricity
0.00348
Inclination
98.5698°
RAAN
158.9817°
Arg. of periapsis
236.8077°
True anomaly
123.31058°
Mean anomaly
122.9771°
Eccentric anomaly
123.14392°
Mean motion
3.58435 °/min
Orbital period
100.44 mins
BSTAR
0.00037316
Loading maneuver chart data...
Computing Atmospheric mass density...

Documentation

Showing up to 5 results
|